Retour au catalogue

STARLINK-5971

ActifCommunicationsVLEO
NORAD 56917·PAYLOAD·🇺🇸 United States

Lancé Jun 12, 2023 depuis Cape Canaveral Space Force Station

Loading…

Prochains Passages (prochaines 24 heures)

TLE

FraisSource: CelesTrak SupGP

Époque: Sep 15, 2026, 02:22 UTC

1 56917C 23083AT  26258.09909722 -.00020384  00000+0 -73809-3 0  2581
2 56917  43.0036  81.1954 0002131 278.2864  78.5267 15.27596770    13

Suivez STARLINK-5971 en temps réel avec AllMySat

Download on the App Store